DA1VID Weather Reports


time (UTC)temp
C
wind
direction
speed
KPH
gust
KPH
rain 1hr
cm
rain 24hr
cm
rain mn
cm
humidity
%
barometer
mb
20260507182519 11 82 9.7 17.7 0.00 0.00 0.00 71 1016.8
20260507181522 12 83 6.4 9.7 0.00 0.00 0.00 69 1016.6
20260507180518 12 87 6.4 11.3 0.00 0.00 0.00 69 1016.6
20260507175525 12 77 8.0 17.7 0.00 0.00 0.00 68 1016.5
20260507174520 12 68 6.4 14.5 0.00 0.00 0.00 68 1016.6
20260507173525 12 83 8.0 14.5 0.00 0.00 0.00 67 1016.3
20260507172521 13 83 8.0 14.5 0.00 0.00 0.00 63 1016.4
20260507171518 13 79 6.4 12.9 0.00 0.00 0.00 64 1016.4
20260507170543 13 51 6.4 16.1 0.00 0.00 0.00 64 1016.3
20260507165518 13 97 9.7 19.3 0.00 0.00 0.00 62 1016.3
20260507164525 13 45 4.8 14.5 0.00 0.00 0.00 60 1016.3
20260507163520 13 86 8.0 14.5 0.00 0.00 0.00 61 1016.3
20260507162519 13 82 8.0 16.1 0.00 0.00 0.00 62 1016.2
20260507161522 13 98 9.7 19.3 0.00 0.00 0.00 62 1016.2
20260507160517 13 78 8.0 17.7 0.00 0.00 0.00 62 1016.2
20260507155523 13 91 8.0 16.1 0.00 0.00 0.00 62 1016.1
20260507154519 13 99 11.3 20.9 0.00 0.00 0.00 62 1016.2
20260507153525 15 64 4.8 8.0 0.00 0.00 0.00 61 1016.0
20260507152520 14 75 8.0 17.7 0.00 0.00 0.00 61 1016.0
20260507151516 13 49 6.4 17.7 0.00 0.00 0.00 63 1016.0
20260507150523 15 54 6.4 16.1 0.00 0.00 0.00 61 1015.9
20260507145518 14 49 6.4 16.1 0.00 0.00 0.00 61 1015.9
20260507144523 14 51 6.4 12.9 0.00 0.00 0.00 61 1016.0
20260507143519 14 61 6.4 12.9 0.00 0.00 0.00 63 1015.9
20260507142526 14 85 6.4 14.5 0.00 0.00 0.00 63 1015.9
20260507141521 13 80 8.0 20.9 0.00 0.00 0.00 64 1016.0
20260507140517 14 87 9.7 19.3 0.00 0.00 0.00 62 1016.0
20260507135522 15 64 6.4 16.1 0.00 0.00 0.00 62 1016.1
20260507134539 14 94 12.9 27.4 0.00 0.00 0.00 62 1016.1
20260507133544 15 45 8.0 14.5 0.00 0.00 0.00 63 1016.0
20260507132520 15 65 4.8 11.3 0.00 0.00 0.00 61 1015.9
20260507131516 15 84 6.4 16.1 0.00 0.00 0.00 63 1015.9
20260507130522 14 42 6.4 9.7 0.00 0.00 0.00 62 1016.0
20260507125517 13 81 9.7 19.3 0.00 0.00 0.00 65 1016.0
20260507124523 15 41 6.4 19.3 0.00 0.00 0.00 63 1016.0
20260507123518 15 16 6.4 14.5 0.00 0.00 0.00 62 1016.0
20260507122524 13 24 6.4 12.9 0.00 0.00 0.00 66 1015.9
20260507121520 15 40 6.4 14.5 0.00 0.00 0.00 64 1015.8
20260507120516 13 48 6.4 9.7 0.00 0.00 0.00 66 1015.8
20260507115522 13 14 6.4 9.7 0.00 0.00 0.00 66 1015.8
20260507114517 13 36 6.4 12.9 0.00 0.00 0.00 65 1015.8
20260507113523 14 56 4.8 14.5 0.00 0.00 0.00 65 1015.8
20260507112519 14 4 6.4 14.5 0.00 0.00 0.00 64 1015.7
20260507111525 14 17 4.8 12.9 0.00 0.00 0.00 61 1015.8
20260507110542 13 56 4.8 11.3 0.00 0.00 0.00 64 1015.8
20260507105516 13 19 4.8 11.3 0.00 0.00 0.00 64 1015.7
20260507104542 13 17 4.8 9.7 0.00 0.00 0.00 64 1015.8
20260507103518 13 56 4.8 9.7 0.00 0.00 0.00 64 1015.7
20260507102524 13 41 4.8 11.3 0.00 0.00 0.00 63 1015.6
20260507101520 13 356 6.4 14.5 0.00 0.00 0.00 65 1015.5
20260507100525 12 40 4.8 9.7 0.00 0.00 0.00 66 1015.4
20260507095524 12 68 4.8 16.1 0.00 0.00 0.00 66 1015.5
20260507094520 13 48 4.8 14.5 0.00 0.00 0.00 65 1015.3
20260507093526 12 27 6.4 14.5 0.00 0.00 0.00 66 1015.3
20260507092521 12 50 6.4 14.5 0.00 0.00 0.00 69 1015.3
20260507091527 12 32 8.0 19.3 0.00 0.00 0.00 68 1015.2
20260507090526 12 36 6.4 16.1 0.00 0.00 0.00 71 1015.1
20260507085516 11 43 6.4 12.9 0.00 0.00 0.00 76 1015.1
20260507084521 11 46 6.4 12.9 0.00 0.00 0.00 76 1015.0
20260507083517 11 47 6.4 14.5 0.00 0.00 0.00 76 1014.8
20260507082523 11 47 4.8 8.0 0.00 0.00 0.00 77 1014.8
20260507081519 11 68 4.8 8.0 0.00 0.00 0.00 79 1014.7
20260507080605 11 55 4.8 6.4 0.00 0.00 0.00 77 1014.7
20260507075517 11 62 6.4 14.5 0.00 0.00 0.00 78 1014.5
20260507074524 11 58 4.8 9.7 0.00 0.00 0.00 77 1014.4
20260507073539 11 74 3.2 8.0 0.00 0.00 0.00 78 1014.4
20260507072524 10 74 4.8 9.7 0.00 0.00 0.00 82 1014.3
20260507071520 10 70 3.2 6.4 0.00 0.00 0.00 85 1014.3
20260507070515 9 350 3.2 8.0 0.00 0.00 0.00 85 1014.2
20260507065522 9 18 3.2 6.4 0.00 0.00 0.00 86 1014.1
20260507064517 8 349 3.2 6.4 0.00 0.00 0.00 87 1014.1
20260507063523 8 33 1.6 4.8 0.00 0.00 0.00 87 1014.0
20260507062519 8 16 3.2 6.4 0.00 0.00 0.00 89 1013.7
20260507061545 8 16 3.2 6.4 0.00 0.00 0.00 90 1013.8
20260507060520 7 354 4.8 11.3 0.00 0.00 0.00 90 1013.6
20260507055516 7 353 3.2 8.0 0.00 0.00 0.00 91 1013.5
20260507054522 7 15 3.2 8.0 0.00 0.00 0.00 91 1013.5
20260507053518 7 358 4.8 8.0 0.00 0.00 0.00 92 1013.4
20260507052523 7 353 3.2 9.7 0.00 0.00 0.00 92 1013.4
20260507051519 7 336 4.8 9.7 0.00 0.00 0.00 92 1013.2
20260507050525 7 352 3.2 6.4 0.00 0.00 0.00 92 1013.2
20260507045521 7 323 4.8 9.7 0.00 0.00 0.00 92 1012.9
20260507044537 7 360 3.2 9.7 0.00 0.00 0.00 92 1012.8
20260507043523 7 337 3.2 6.4 0.00 0.00 0.00 92 1012.8
20260507042518 7 344 3.2 8.0 0.00 0.00 0.00 92 1012.7
20260507041524 7 339 4.8 8.0 0.00 0.00 0.00 93 1012.7
20260507040520 7 13 1.6 4.8 0.00 0.00 0.00 93 1012.7